FW2728 Weather Reports


time (UTC)temp
C
wind
direction
speed
KPH
gust
KPH
rain 1hr
cm
rain 24hr
cm
rain mn
cm
humidity
%
barometer
mb
20260904222037 37 170 3.2 9.7 0.00 0.00 0.00 36 1011.0
20260904221016 37 199 3.2 12.9 0.00 0.00 0.00 36 1011.0
20260904220016 37 144 4.8 14.5 0.00 0.00 0.00 36 1011.1
20260904215037 37 93 4.8 12.9 0.00 0.00 0.00 37 1011.1
20260904214037 37 124 6.4 12.9 0.00 0.00 0.00 36 1011.2
20260904213017 37 95 4.8 11.3 0.00 0.00 0.00 37 1011.3
20260904212057 37 177 4.8 12.9 0.00 0.00 0.00 36 1011.4
20260904211018 37 192 3.2 19.3 0.00 0.00 0.00 36 1011.5
20260904210017 37 137 1.6 8.0 0.00 0.00 0.00 37 1011.7
20260904205018 37 120 3.2 11.3 0.00 0.00 0.00 38 1011.8
20260904204038 37 204 4.8 12.9 0.00 0.00 0.00 38 1012.0
20260904203018 37 165 3.2 9.7 0.00 0.00 0.00 39 1012.1
20260904202018 37 158 4.8 9.7 0.00 0.00 0.00 39 1012.1
20260904201016 37 183 3.2 11.3 0.00 0.00 0.00 39 1012.3
20260904200015 37 198 4.8 11.3 0.00 0.00 0.00 39 1012.5
20260904195016 36 109 4.8 12.9 0.00 0.00 0.00 39 1012.7
20260904194036 36 211 6.4 14.5 0.00 0.00 0.00 41 1012.8
20260904193036 36 162 3.2 12.9 0.00 0.00 0.00 42 1013.0
20260904192016 36 129 3.2 9.7 0.00 0.00 0.00 43 1013.1
20260904191036 36 127 4.8 11.3 0.00 0.00 0.00 43 1013.2
20260904190016 36 138 4.8 12.9 0.00 0.00 0.00 45 1013.3
20260904185017 35 129 4.8 12.9 0.00 0.00 0.00 47 1013.4
20260904184017 35 83 3.2 8.0 0.00 0.00 0.00 47 1013.6
20260904183017 35 224 6.4 12.9 0.00 0.00 0.00 46 1013.7
20260904182017 35 218 4.8 11.3 0.00 0.00 0.00 47 1013.8
20260904181017 35 261 3.2 12.9 0.00 0.00 0.00 48 1013.9
20260904180017 34 226 4.8 12.9 0.00 0.00 0.00 48 1014.1
20260904175018 34 195 4.8 9.7 0.00 0.00 0.00 48 1014.2
20260904174019 33 215 3.2 9.7 0.00 0.00 0.00 49 1014.3
20260904173018 33 200 1.6 6.4 0.00 0.00 0.00 54 1014.4
20260904172018 32 170 3.2 9.7 0.00 0.00 0.00 53 1014.6
20260904171018 32 248 4.8 11.3 0.00 0.00 0.00 52 1014.7
20260904170015 32 199 4.8 12.9 0.00 0.00 0.00 51 1014.8
20260904165036 32 208 4.8 14.5 0.00 0.00 0.00 50 1014.8
20260904164016 33 222 4.8 14.5 0.00 0.00 0.00 49 1014.9
20260904163016 32 245 6.4 11.3 0.00 0.00 0.00 50 1014.8
20260904162016 32 237 8.0 14.5 0.00 0.00 0.00 52 1014.8
20260904161016 32 232 4.8 12.9 0.00 0.00 0.00 54 1014.8
20260904160016 32 203 6.4 14.5 0.00 0.00 0.00 55 1014.8
20260904155017 31 190 3.2 8.0 0.00 0.00 0.00 60 1014.8
20260904154037 31 243 3.2 9.7 0.00 0.00 0.00 65 1014.8
20260904153016 30 198 4.8 11.3 0.00 0.00 0.00 67 1014.7
20260904152017 30 215 3.2 9.7 0.00 0.00 0.00 68 1014.7
20260904151017 30 223 4.8 9.7 0.00 0.00 0.00 70 1014.7
20260904150017 29 220 4.8 9.7 0.00 0.00 0.00 72 1014.8
20260904145018 29 222 4.8 11.3 0.00 0.00 0.00 74 1014.9
20260904144018 28 228 4.8 12.9 0.00 0.00 0.00 76 1014.8
20260904143038 28 213 4.8 11.3 0.00 0.00 0.00 78 1014.8
20260904142018 27 148 3.2 9.7 0.00 0.00 0.00 79 1014.8
20260904141038 27 175 1.6 8.0 0.00 0.00 0.00 82 1014.9
20260904140018 26 106 3.2 8.0 0.00 0.00 0.00 84 1014.9
20260904135016 26 124 3.2 11.3 0.00 0.00 0.00 84 1014.8
20260904134018 26 155 1.6 8.0 0.00 0.00 0.00 85 1014.8
20260904133016 26 178 3.2 8.0 0.00 0.00 0.00 85 1014.6
20260904132016 26 124 1.6 4.8 0.00 0.00 0.00 85 1014.5
20260904131016 26 121 3.2 9.7 0.00 0.00 0.00 85 1014.4
20260904130017 26 172 1.6 6.4 0.00 0.00 0.00 86 1014.3
20260904125017 26 147 1.6 6.4 0.00 0.00 0.00 86 1014.2
20260904124045 26 150 3.2 8.0 0.00 0.00 0.00 86 1014.1
20260904123017 26 123 1.6 4.8 0.00 0.00 0.00 86 1014.1
20260904122017 25 108 3.2 6.4 0.00 0.00 0.00 86 1014.0
20260904121017 26 113 1.6 4.8 0.00 0.00 0.00 86 1013.9
20260904120018 26 124 1.6 6.4 0.00 0.00 0.00 85 1013.7
20260904115017 26 116 1.6 4.8 0.00 0.00 0.00 85 1013.6
20260904114018 26 125 1.6 4.8 0.00 0.00 0.00 85 1013.6
20260904113058 26 100 0.0 4.8 0.00 0.00 0.00 85 1013.7
20260904112015 26 128 1.6 3.2 0.00 0.00 0.00 85 1013.6
20260904111015 26 121 1.6 4.8 0.00 0.00 0.00 85 1013.6
20260904110015 26 171 1.6 6.4 0.00 0.00 0.00 85 1013.5
20260904105015 26 206 1.6 6.4 0.00 0.00 0.00 85 1013.4
20260904104016 26 195 1.6 6.4 0.00 0.00 0.00 85 1013.3
20260904103016 26 219 1.6 4.8 0.00 0.00 0.00 85 1013.3
20260904102016 26 202 1.6 6.4 0.00 0.00 0.00 84 1013.3
20260904101016 26 172 3.2 11.3 0.00 0.00 0.00 84 1013.3
20260904100036 26 152 1.6 6.4 0.00 0.00 0.00 84 1013.3
20260904095037 26 162 1.6 4.8 0.00 0.00 0.00 84 1013.3
20260904094017 26 198 1.6 6.4 0.00 0.00 0.00 84 1013.2
20260904093017 26 184 1.6 4.8 0.00 0.00 0.00 84 1013.2
20260904092017 26 155 1.6 4.8 0.00 0.00 0.00 84 1013.2
20260904091018 26 194 1.6 6.4 0.00 0.00 0.00 84 1013.2
20260904090017 26 193 1.6 4.8 0.00 0.00 0.00 84 1013.2
20260904085017 26 178 1.6 6.4 0.00 0.00 0.00 83 1013.2
20260904084018 26 197 1.6 6.4 0.00 0.00 0.00 83 1013.1
20260904083018 26 196 1.6 4.8 0.00 0.00 0.00 83 1013.1
20260904082019 26 197 1.6 9.7 0.00 0.00 0.00 83 1013.1
20260904081038 26 166 1.6 6.4 0.00 0.00 0.00 83 1013.0
20260904080015 26 222 1.6 6.4 0.00 0.00 0.00 83 1013.0
20260904075016 26 209 1.6 6.4 0.00 0.00 0.00 83 1013.0
20260904074016 26 186 1.6 6.4 0.00 0.00 0.00 82 1013.2
20260904073036 26 181 3.2 9.7 0.00 0.00 0.00 82 1013.1
20260904072016 26 156 1.6 6.4 0.00 0.00 0.00 81 1013.3
20260904071017 26 197 3.2 6.4 0.00 0.00 0.00 81 1013.4
20260904070016 26 179 3.2 8.0 0.00 0.00 0.00 80 1013.4
20260904065017 26 204 1.6 6.4 0.00 0.00 0.00 80 1013.5
20260904064016 26 212 1.6 4.8 0.00 0.00 0.00 80 1013.5
20260904063017 26 211 3.2 6.4 0.00 0.00 0.00 80 1013.4
20260904062037 26 197 3.2 9.7 0.00 0.00 0.00 79 1013.5
20260904061017 26 186 4.8 11.3 0.00 0.00 0.00 79 1013.5
20260904060018 26 183 4.8 11.3 0.00 0.00 0.00 78 1013.6
20260904055018 26 185 3.2 8.0 0.00 0.00 0.00 78 1013.5
20260904054018 26 191 4.8 12.9 0.00 0.00 0.00 77 1013.5
20260904053015 26 210 4.8 14.5 0.00 0.00 0.00 77 1013.4
20260904052039 26 177 3.2 9.7 0.00 0.00 0.00 76 1013.4
20260904051015 26 181 3.2 9.7 0.00 0.00 0.00 75 1013.4
20260904050016 26 163 3.2 9.7 0.00 0.00 0.00 74 1013.4
20260904045016 27 143 1.6 8.0 0.00 0.00 0.00 73 1013.4
20260904044017 27 138 3.2 8.0 0.00 0.00 0.00 71 1013.3
20260904043036 27 179 3.2 11.3 0.00 0.00 0.00 70 1013.4
20260904042017 27 145 3.2 9.7 0.00 0.00 0.00 69 1013.4
20260904041017 27 144 1.6 9.7 0.00 0.00 0.00 68 1013.5
20260904040037 27 124 4.8 9.7 0.00 0.00 0.00 68 1013.5
20260904035017 27 129 4.8 11.3 0.00 0.00 0.00 68 1013.4
20260904034018 27 130 4.8 11.3 0.00 0.00 0.00 68 1013.4
20260904033018 27 150 3.2 9.7 0.00 0.00 0.00 68 1013.3
20260904032015 27 141 3.2 11.3 0.00 0.00 0.00 69 1013.3
20260904031015 28 138 4.8 11.3 0.00 0.00 0.00 69 1013.2
20260904030036 28 144 3.2 14.5 0.00 0.00 0.00 69 1013.2
20260904025035 28 130 4.8 12.9 0.00 0.00 0.00 70 1013.1
20260904024016 28 106 4.8 12.9 0.00 0.00 0.00 70 1012.9
20260904023016 28 100 4.8 12.9 0.00 0.00 0.00 70 1012.8
20260904022016 28 136 3.2 12.9 0.00 0.00 0.00 70 1012.7
20260904021016 28 122 4.8 11.3 0.00 0.00 0.00 70 1012.5
20260904020016 28 152 3.2 9.7 0.00 0.00 0.00 70 1012.3
20260904015017 29 142 4.8 12.9 0.00 0.00 0.00 69 1012.0
20260904014017 29 117 4.8 11.3 0.00 0.00 0.00 65 1011.9
20260904013017 30 122 4.8 14.5 0.00 0.00 0.00 62 1011.7
20260904012017 30 135 3.2 11.3 0.00 0.00 0.00 59 1011.6
20260904011017 30 143 4.8 11.3 0.00 0.00 0.00 57 1011.6
20260904010017 30 138 4.8 12.9 0.00 0.00 0.00 56 1011.5
20260904005037 30 165 4.8 9.7 0.00 0.00 0.00 57 1011.5
20260904004018 31 147 3.2 9.7 0.00 0.00 0.00 58 1011.5
20260904003038 31 163 4.8 12.9 0.00 0.00 0.00 58 1011.4
20260904002015 31 122 4.8 12.9 0.00 0.00 0.00 58 1011.5
20260904001018 31 145 4.8 14.5 0.00 0.00 0.00 57 1011.5
20260904000018 32 155 4.8 11.3 0.00 0.00 0.00 57 1011.3
20260903235015 32 133 4.8 14.5 0.00 0.00 0.00 57 1011.3
20260903234016 32 133 3.2 12.9 0.00 0.00 0.00 56 1011.2
20260903233016 32 113 3.2 16.1 0.00 0.00 0.00 56 1011.1
20260903232016 32 144 4.8 14.5 0.00 0.00 0.00 56 1011.1
20260903231016 33 131 4.8 12.9 0.00 0.00 0.00 56 1011.0
20260903230016 33 117 4.8 14.5 0.00 0.00 0.00 55 1010.9
20260903225016 33 142 4.8 12.9 0.00 0.00 0.00 56 1010.8
20260903224017 33 118 6.4 14.5 0.00 0.00 0.00 55 1010.8
20260903223037 33 117 4.8 11.3 0.00 0.00 0.00 54 1010.9